Temperature
17 17 17 17 17 17 17 17 16 16 17 17 17 17 17 17 17 17 16 16 16 16 16 16 16 16 16 16 16 16 15 15 15 15 15 15 15 15
17 17 17 17 17 17 16 16 16 16 16 16 16 16 17 17 16 16 16 16 16 16 16 16 16 16 16 16 15 15 15 15 15 15 15 15 15 14
17 17 17 17 16 16 16 16 16 16 16 16 16 16 16 16 16 16 16 16 16 16 16 16 16 16 15 15 15 15 15 15 15 15 15 15 14 14
16 16 16 16 16 16 16 16 16 16 15 15 16 16 16 16 16 16 16 16 15 15 15 15 15 15 15 15 15 15 15 15 15 15 15 14 14 14
16 16 16 16 16 16 16 16 15 15 15 15 15 16 16 16 16 16 16 15 15 15 15 15 15 15 15 15 15 15 15 14 14 14 14 14 14 14
16 16 15 15 15 15 15 15 15 15 15 15 15 15 15 15 15 15 15 15 15 15 15 15 15 15 15 15 14 14 14 14 14 14 14 14 14 14
15 15 15 15 15 15 15 15 15 15 15 15 15 15 15 15 15 15 14 15 15 14 14 14 14 14 14 14 14 14 14 14 14 14 14 13 13 13
15 15 15 15 14 14 14 14 14 14 14 14 14 14 14 14 14 14 14 14 14 14 14 14 14 14 14 14 14 14 14 14 13 13 13 13 13 13
14 14 14 14 14 14 14 14 14 14 14 13 13 13 14 14 14 14 13 13 13 14 13 13 13 13 13 13 13 13 13 13 13 13 13 13 13 13
14 14 14 14 14 13 13 13 13 13 13 13 13 13 13 13 13 13 13 13 13 13 13 13 13 13 13 13 13 13 13 13 13 12 12 12 12 12
13 13 13 13 13 13 13 13 13 13 13 13 13 13 13 13 13 13 13 13 13 13 13 12 12 13 12 12 12 12 12 12 12 12 12 12 12 12
13 13 13 13 13 12 12 12 12 12 12 12 12 12 12 13 13 12 12 12 12 12 12 12 12 12 11 12 12 12 12 12 12 11 11 11 11 11
13 12 12 12 12 12 12 12 12 12 12 12 12 12 12 12 12 12 12 12 12 12 12 11 11 11 11 11 11 11 11 11 11 11 11 11 11 11
12 12 12 11 11 11 12 12 12 12 12 12 12 12 12 12 12 12 12 11 11 11 11 11 11 11 11 11 11 11 11 11 11 11 11 11 10 10
12 11 11 11 11 11 11 11 11 11 11 11 11 11 11 11 11 11 11 11 11 11 11 11 11 10 10 10 10 10 10 10 10 10 10 10 10 10
11 11 11 11 11 11 11 11 11 11 11 11 11 11 11 11 11 11 11 10 10 10 10 10 10 10 10 10 10 10 10 10 10 10 10 10 10 10
11 11 11 10 10 10 10 10 10 10 10 10 10 10 10 10 10 10 10 10 10 10 10 10 10 10 10 10 9 9 9 9 9 9 9 9 9 9
10 10 10 10 10 10 10 10 10 10 10 10 10 10 10 10 10 10 9 9 9 9 9 9 9 9 9 9 9 9 9 9 9 9 8 9 9 9
10 10 10 10 10 9 9 9 9 9 9 9 9 9 9 9 9 9 9 9 9 9 8 8 8 8 8 8 8 8 8 8 8 8 8 8 8 8
10 10 9 9 9 9 9 9 9 9 9 9 9 9 9 8 8 8 8 8 8 8 8 8 8 8 8 8 8 8 8 8 8 8 8 8 8 8
10 9 9 9 9 9 9 9 8 8 8 8 8 8 8 8 8 8 8 8 8 8 8 8 8 8 8 7 7 8 8 8 8 8 7 7 7 7
9 9 9 9 9 8 8 8 8 8 8 8 8 8 8 8 7 8 7 7 7 7 7 7 7 7 7 7 7 7 7 7 7 7 7 7 7 7
9 9 9 8 8 8 8 8 8 8 8 7 7 7 7 7 7 7 7 7 7 7 7 7 7 7 7 7 7 7 7 7 7 7 7 7 7 7
Wind_Speed
2 2 1 1 1 2 2 3 3 2 3 3 2 2 3 4 4 4 5 6 7 8 8 9 9 9 8 8 8 9 10 10 10 10 10 9 9 8
1 0 1 1 1 1 2 2 3 3 3 2 3 3 3 3 4 4 4 5 6 7 7 7 8 8 8 8 8 8 9 10 10 10 10 9 8 8
1 0 1 1 1 1 1 1 2 3 4 4 2 3 2 3 3 3 3 3 4 5 6 7 7 8 8 8 8 8 8 8 9 9 8 8 8 8
1 1 1 1 1 1 1 2 2 2 3 4 3 2 3 3 3 3 3 2 3 4 5 5 6 7 7 8 8 8 8 9 9 8 7 7 6 6
1 1 2 1 2 2 2 2 2 2 2 3 3 2 2 2 2 2 2 2 3 3 3 3 4 5 6 7 7 7 8 9 8 8 8 7 6 6
1 2 2 2 3 3 2 2 2 2 2 2 3 3 3 2 2 2 2 2 2 3 2 2 3 3 5 6 7 7 8 9 9 8 7 6 5 5
1 1 1 1 2 2 2 2 2 2 2 2 3 2 3 2 2 2 3 2 2 1 1 2 1 1 3 4 6 7 7 8 8 7 7 6 6 5
1 2 3 2 3 2 2 2 2 2 3 2 3 3 4 4 3 2 2 2 2 1 1 2 1 2 2 2 3 4 5 6 7 6 6 6 6 5
2 2 2 2 2 2 3 3 3 3 4 4 4 5 5 4 3 3 2 2 3 2 1 2 2 2 2 2 2 3 3 4 5 5 5 5 6 6
2 2 2 3 3 2 2 3 4 4 4 4 4 5 5 5 4 4 3 3 3 2 1 2 2 2 2 2 0 2 3 3 4 4 5 5 5 5
3 2 2 3 3 2 2 3 4 4 4 3 4 5 5 4 3 2 2 2 3 2 1 1 1 1 1 1 1 0 2 3 3 3 4 4 4 4
2 2 2 3 3 3 2 2 4 5 4 4 4 4 4 3 2 3 3 3 2 2 1 1 1 0 1 1 1 1 0 1 2 3 3 3 4 2
2 2 3 3 4 4 3 3 5 5 3 3 3 3 3 2 2 2 2 3 3 2 1 1 1 1 1 1 1 1 1 1 0 1 2 3 3 3
3 2 3 4 4 4 3 3 4 3 2 2 2 2 3 3 2 2 1 1 2 3 2 2 1 2 2 2 2 1 1 0 0 0 1 1 2 2
2 3 3 3 3 3 3 4 3 2 1 2 2 3 2 2 2 2 2 1 1 1 1 2 2 2 2 2 2 1 1 1 0 0 0 1 1 1
1 1 2 2 2 3 3 3 2 2 2 2 2 2 2 1 1 1 1 1 1 2 3 2 1 2 2 2 2 2 1 1 1 1 0 1 1 2
1 1 1 2 2 3 3 3 2 2 2 2 2 2 1 1 1 1 1 1 1 2 3 3 3 1 1 1 2 2 2 1 1 1 1 1 2 2
1 1 1 2 2 3 3 3 2 2 2 2 2 1 1 1 1 1 0 0 1 1 2 2 2 1 1 1 1 3 2 2 1 1 1 1 2 2
1 1 2 2 2 3 3 2 2 2 2 1 1 2 2 2 1 1 1 1 1 2 2 2 1 0 1 3 2 1 2 2 1 1 2 2 3 3
2 2 2 2 3 3 3 3 3 2 1 1 2 2 2 2 2 2 2 2 2 2 2 2 1 2 2 3 2 2 3 3 2 2 2 2 2 3
3 3 3 3 3 3 3 3 2 2 2 2 2 2 2 2 3 3 2 3 2 2 2 3 3 3 2 1 1 2 2 2 3 3 3 2 2 2
3 3 3 3 3 3 3 3 2 3 3 2 2 3 3 3 3 4 3 3 3 3 3 3 2 1 1 2 3 3 3 2 1 1 3 4 3 3
4 4 3 3 3 3 3 3 4 3 3 3 3 3 3 3 3 4 4 4 3 3 2 2 2 1 2 2 2 2 2 2 2 2 2 3 4 6
Wind_Direction
241 236 239 263 233 222 214 211 209 254 276 266 262 265 266 262 261 256 257 255 244 240 238 236 234 228 229 233 234 239 235 230 230 230 229 231 235 240
247 249 280 284 296 266 233 229 216 216 249 263 253 271 278 280 266 267 266 265 253 248 243 240 238 233 228 229 235 238 234 229 230 229 227 227 229 232
326 282 284 292 293 303 277 254 237 222 245 270 260 275 276 281 296 287 283 279 273 259 249 242 237 232 228 227 230 234 230 226 226 226 224 226 228 230
270 292 294 283 285 281 268 267 260 239 240 269 289 295 281 288 290 290 299 296 286 285 264 250 237 230 227 224 224 226 226 224 222 220 218 220 223 229
245 252 269 271 281 276 264 265 270 268 242 251 282 293 292 309 307 304 304 304 302 305 283 257 238 227 228 229 228 227 224 221 220 218 217 217 220 229
274 255 258 249 260 266 264 262 261 268 260 259 271 285 286 297 298 289 301 302 308 332 322 289 250 234 236 236 234 233 229 222 219 218 216 213 215 223
324 308 294 289 281 266 276 267 260 258 269 268 271 279 286 288 279 275 280 297 301 323 306 304 303 284 266 251 239 232 226 223 220 216 212 210 211 216
301 310 308 319 317 315 301 287 257 253 259 257 262 266 272 271 276 277 284 303 298 309 291 306 311 284 290 275 246 221 218 215 212 212 210 210 210 211
272 291 302 313 325 322 329 327 312 280 240 237 254 261 263 261 263 266 248 246 262 280 262 294 297 285 298 290 242 211 202 202 206 209 208 206 203 203
261 262 269 287 295 306 315 319 307 296 270 249 253 265 268 261 241 245 251 253 272 276 228 270 291 286 310 338 320 196 194 192 192 197 201 200 201 207
276 275 263 274 288 291 291 298 306 305 302 288 274 276 280 282 257 237 241 249 279 287 219 228 274 290 309 319 359 204 213 205 188 185 194 193 191 194
293 293 278 274 292 297 270 268 283 295 309 319 322 321 313 315 276 230 224 225 247 265 225 203 234 299 309 305 342 7 359 194 183 183 187 192 186 184
273 287 293 293 296 297 274 255 261 279 298 306 312 319 324 324 318 286 242 221 223 246 235 196 223 226 241 279 306 317 359 25 75 136 167 165 172 177
246 270 285 294 297 298 294 283 284 288 288 299 306 310 313 314 315 316 302 265 235 242 248 209 222 224 231 259 276 288 308 1 53 123 91 131 153 182
246 260 276 289 302 306 303 299 300 291 269 267 276 284 285 291 312 331 354 8 8 328 298 235 222 224 221 237 251 258 264 275 241 183 185 194 213 222
280 297 307 313 309 297 305 308 295 276 260 257 267 277 291 309 326 332 328 346 359 348 355 352 268 225 232 234 224 244 237 216 217 209 226 271 274 238
253 326 333 325 324 321 316 308 302 292 271 263 262 275 290 316 327 332 336 350 327 310 332 349 2 349 260 238 230 239 238 217 206 199 198 251 267 260
157 238 271 279 282 291 297 307 312 304 287 273 263 260 269 278 291 308 311 292 292 300 312 322 345 13 3 343 256 235 232 226 219 204 204 226 263 272
179 240 257 263 269 275 279 281 286 294 296 290 276 268 266 272 276 278 274 264 272 280 290 297 300 293 294 303 317 284 248 239 216 226 229 237 253 259
238 244 259 265 265 270 273 275 279 286 293 288 277 272 270 271 276 275 264 259 263 270 279 288 272 254 248 258 269 293 271 235 227 233 248 266 273 272
247 247 252 258 262 266 269 265 262 265 270 266 266 267 267 271 271 266 261 256 255 258 264 272 274 261 255 231 252 280 294 267 234 232 233 243 266 265
243 247 249 251 253 257 261 260 257 260 265 267 271 272 268 261 261 264 261 256 255 255 260 270 277 246 214 220 252 273 291 321 336 261 246 250 246 239
244 246 247 250 252 254 254 253 253 259 259 258 262 268 270 270 271 269 266 256 255 259 263 268 271 259 241 237 255 266 274 296 314 323 321 323 267 258
Height
1536 1536 1536 1535 1535 1535 1535 1535 1535 1533 1532 1532 1532 1531 1531 1530 1529 1528 1527 1526 1525 1525 1525 1525 1525 1525 1526 1527 1528 1528 1529 1529 1530 1531 1532 1532 1533 1533
1533 1533 1533 1533 1533 1532 1532 1532 1532 1531 1529 1529 1529 1528 1528 1527 1526 1525 1524 1524 1523 1522 1522 1522 1522 1522 1522 1523 1523 1524 1525 1525 1526 1527 1528 1528 1529 1529
1531 1531 1530 1530 1530 1530 1529 1529 1528 1528 1527 1526 1526 1525 1524 1524 1523 1522 1521 1520 1519 1519 1519 1518 1518 1518 1518 1519 1519 1520 1521 1521 1522 1523 1523 1524 1525 1525
1528 1528 1527 1528 1527 1527 1526 1526 1525 1525 1524 1523 1522 1522 1521 1520 1520 1519 1518 1517 1516 1516 1515 1515 1515 1515 1515 1515 1515 1516 1516 1517 1518 1518 1519 1520 1520 1521
1526 1525 1525 1525 1524 1524 1524 1523 1522 1522 1521 1520 1519 1519 1518 1517 1516 1515 1515 1514 1513 1512 1511 1511 1511 1511 1511 1511 1511 1511 1512 1513 1514 1515 1515 1516 1516 1517
1523 1523 1522 1522 1521 1521 1521 1520 1519 1519 1518 1517 1516 1515 1515 1514 1513 1512 1511 1511 1510 1509 1508 1508 1508 1507 1507 1507 1507 1508 1508 1509 1510 1510 1511 1512 1512 1512
1520 1520 1519 1519 1518 1518 1517 1517 1516 1515 1514 1513 1512 1512 1511 1510 1510 1508 1508 1507 1506 1506 1505 1505 1504 1504 1504 1503 1503 1504 1504 1505 1506 1506 1507 1508 1508 1508
1517 1517 1516 1516 1516 1515 1514 1513 1513 1512 1511 1510 1509 1508 1507 1507 1506 1505 1505 1504 1503 1503 1502 1501 1501 1500 1500 1500 1500 1500 1500 1501 1502 1502 1503 1504 1504 1505
1514 1513 1513 1512 1512 1511 1511 1510 1509 1508 1508 1507 1505 1505 1504 1503 1503 1502 1501 1500 1500 1499 1499 1498 1498 1498 1497 1497 1497 1497 1497 1497 1498 1498 1499 1500 1500 1501
1511 1510 1509 1509 1509 1508 1507 1506 1506 1505 1504 1503 1502 1501 1501 1500 1499 1499 1498 1497 1496 1496 1495 1494 1494 1494 1494 1493 1493 1493 1493 1494 1494 1495 1495 1496 1497 1497
1507 1507 1506 1506 1505 1505 1504 1502 1502 1501 1501 1500 1499 1498 1497 1496 1496 1495 1494 1493 1492 1492 1492 1491 1491 1491 1490 1490 1490 1490 1491 1491 1491 1491 1492 1493 1493 1494
1504 1503 1503 1503 1502 1501 1500 1499 1498 1497 1497 1496 1495 1494 1494 1493 1492 1491 1490 1490 1489 1489 1488 1488 1488 1488 1487 1487 1488 1488 1488 1488 1488 1488 1489 1489 1490 1490
1501 1500 1500 1499 1499 1498 1497 1496 1495 1495 1493 1493 1492 1491 1490 1489 1488 1488 1487 1486 1486 1485 1486 1485 1485 1485 1485 1484 1484 1485 1485 1485 1485 1485 1485 1486 1487 1487
1497 1497 1496 1496 1495 1495 1494 1493 1492 1492 1490 1489 1489 1487 1487 1486 1485 1484 1484 1483 1483 1482 1482 1482 1482 1481 1481 1481 1481 1481 1482 1482 1482 1482 1482 1483 1484 1484
1494 1493 1493 1493 1492 1491 1490 1490 1489 1488 1487 1486 1485 1484 1483 1482 1482 1481 1481 1480 1479 1479 1479 1479 1478 1478 1478 1477 1477 1478 1478 1478 1479 1479 1479 1480 1480 1481
1490 1490 1490 1489 1489 1488 1487 1487 1486 1485 1484 1483 1482 1481 1480 1479 1478 1478 1477 1477 1476 1476 1476 1475 1475 1475 1474 1474 1474 1474 1475 1475 1475 1476 1476 1476 1477 1478
1487 1486 1486 1486 1485 1484 1484 1483 1482 1482 1481 1480 1479 1478 1477 1476 1475 1475 1474 1473 1472 1472 1471 1471 1471 1471 1471 1471 1470 1471 1471 1471 1472 1473 1473 1473 1474 1474
1484 1483 1482 1482 1482 1481 1480 1480 1479 1478 1477 1477 1476 1475 1474 1473 1472 1471 1471 1470 1469 1469 1468 1468 1468 1468 1468 1468 1468 1467 1467 1468 1469 1469 1469 1469 1470 1471
1481 1480 1479 1479 1478 1478 1477 1476 1475 1475 1474 1473 1473 1472 1471 1470 1469 1468 1468 1467 1467 1466 1466 1465 1465 1465 1464 1464 1464 1465 1465 1465 1465 1466 1466 1466 1466 1467
1478 1477 1476 1475 1475 1474 1474 1473 1472 1472 1471 1470 1469 1469 1468 1467 1466 1465 1465 1464 1464 1463 1463 1463 1462 1462 1462 1462 1461 1462 1463 1462 1462 1462 1463 1463 1463 1464
1475 1474 1473 1472 1472 1471 1470 1470 1469 1468 1468 1467 1466 1465 1465 1464 1463 1462 1462 1461 1461 1460 1460 1460 1460 1460 1459 1459 1459 1458 1459 1459 1460 1459 1459 1460 1460 1460
1471 1470 1470 1469 1468 1467 1467 1466 1465 1465 1464 1464 1463 1462 1461 1461 1460 1459 1458 1458 1457 1457 1457 1457 1457 1456 1456 1455 1454 1454 1455 1455 1456 1456 1457 1457 1456 1456
1468 1467 1466 1466 1465 1464 1463 1462 1462 1461 1461 1460 1459 1458 1458 1457 1456 1456 1455 1454 1454 1453 1453 1452 1452 1452 1452 1451 1451 1450 1451 1451 1452 1452 1453 1453 1453 1453